Time,TemperatureF,DewpointF,PressureIn,WindDirection,WindDirectionDegrees,WindSpeedMPH,WindSpeedGustMPH,Humidity,HourlyPrecipIn,Conditions,Clouds,dailyrainin,SoftwareType,DateUTC
2015-06-30 00:00:00,63.2,62.9,29.78,West,278,0.0,1.0,99,0.00,,,0.00,Wunderground v.1.15,2015-06-30 04:00:00,
2015-06-30 00:10:00,63.2,62.9,29.78,West,278,0.0,1.0,99,0.00,,,0.00,Wunderground v.1.15,2015-06-30 04:10:00,
2015-06-30 00:20:00,63.2,62.9,29.78,West,278,0.0,1.0,99,0.00,,,0.00,Wunderground v.1.15,2015-06-30 04:20:00,
2015-06-30 00:25:00,63.2,62.9,29.78,West,278,0.0,1.0,99,0.00,,,0.00,Wunderground v.1.15,2015-06-30 04:25:00,
2015-06-30 00:30:00,63.1,62.8,29.78,West,278,0.0,1.0,99,0.00,,,0.00,Wunderground v.1.15,2015-06-30 04:30:00,
2015-06-30 00:35:00,63.1,62.8,29.78,West,278,0.0,1.0,99,0.00,,,0.00,Wunderground v.1.15,2015-06-30 04:35:00,
2015-06-30 00:40:00,63.0,62.7,29.78,West,278,0.0,1.0,99,0.00,,,0.00,Wunderground v.1.15,2015-06-30 04:40:00,
2015-06-30 00:45:00,63.2,62.9,29.78,West,278,0.0,1.0,99,0.00,,,0.00,Wunderground v.1.15,2015-06-30 04:45:00,
2015-06-30 00:55:00,63.2,62.9,29.78,West,278,0.0,1.0,99,0.00,,,0.00,Wunderground v.1.15,2015-06-30 04:55:00,
2015-06-30 01:00:00,63.0,62.7,29.78,West,278,0.0,1.0,99,0.00,,,0.00,Wunderground v.1.15,2015-06-30 05:00:00,
2015-06-30 01:05:00,62.8,62.5,29.78,West,278,0.0,1.0,99,0.00,,,0.00,Wunderground v.1.15,2015-06-30 05:05:00,
2015-06-30 01:10:00,62.7,62.4,29.78,West,278,0.0,1.0,99,0.00,,,0.00,Wunderground v.1.15,2015-06-30 05:10:00,
2015-06-30 01:20:00,62.5,62.2,29.78,West,278,0.0,1.0,99,0.00,,,0.00,Wunderground v.1.15,2015-06-30 05:20:00,
2015-06-30 01:25:00,62.6,62.3,29.78,West,278,0.0,1.0,99,0.00,,,0.00,Wunderground v.1.15,2015-06-30 05:25:00,
2015-06-30 01:35:00,62.6,62.3,29.78,West,278,0.0,1.0,99,0.00,,,0.00,Wunderground v.1.15,2015-06-30 05:35:00,
2015-06-30 01:40:00,62.7,62.7,29.77,West,278,0.0,1.0,100,0.00,,,0.00,Wunderground v.1.15,2015-06-30 05:40:00,
2015-06-30 01:45:00,62.7,62.7,29.77,West,278,0.0,1.0,100,0.00,,,0.00,Wunderground v.1.15,2015-06-30 05:45:00,
2015-06-30 01:50:00,62.7,62.7,29.78,West,278,0.0,1.0,100,0.00,,,0.00,Wunderground v.1.15,2015-06-30 05:50:00,
2015-06-30 02:00:00,62.6,62.6,29.78,West,278,0.0,1.0,100,0.00,,,0.00,Wunderground v.1.15,2015-06-30 06:00:00,
2015-06-30 02:05:00,62.8,62.8,29.77,West,278,0.0,1.0,100,0.00,,,0.00,Wunderground v.1.15,2015-06-30 06:05:00,